BREEZE-M DEB (TANK), 42908

Orbit data source: Space-Track

BREEZE-M DEB (TANK), 42908 is space debris originally from a launch on Wed, 16 Aug 2017 UTC launched from the Tyuratam Missile And Space Complex (TTMTR). Debris objects in space refer to the collection of defunct objects orbiting the Earth. Examples of debris include non-operational satellites, rocket bodies, and fragments generated from explosions, collisions, or faulty payload assembly.

Loading next visibility...
BREEZE-M DEB (TANK) details
Identifier
42908, 2017-046B
Orbit
Molniya
Last TLE update13 hours ago
Origin
Flag of CISKhrunichev (CIS)
ManufacturerKhrunichev
MissionSpacecraft
Bus & MotorBRIZ TANK, Unknown motor
Mass~1,000 kg wet, 1,000 kg dry
Launch date (UTC)
2017-08-16 (7 years ago)
Launch vehicleUnknown
Launch site
Tyuratam Missile And Space Complex (TTMTR)
Object type
Payload
Rocket body
Debris
Shape & HBRTorus, 4 m
Radar Cross Section8.218 m², Large (>1 m²)

Expand to show TLE details & history

TLE from 13 hours ago
0 BREEZE-M DEB (TANK)
1 42908U 17046B   24339.90186446  .00000317  00000-0  20341-2 0  9993
2 42908  48.5989 296.1481 7115673 304.2907   7.5695  2.37841565 61880
Epoch: 2024-12-04T21:38Z
Definitive object data (Epoch: 2024-12-04T21:38:41.089Z)
Latitude-0.00009°
Longitude-102.78706°
Altitude1,960.139 km
Speed8.877 km/s
True Right ascension19h 44m 17s
True Declination0° 00' 00"
Sunlit
Object was in daylight at TLE epoch
Visualization TLE readout
Latitude47.24233°
Longitude5.01635°
Altitude27,829.836 km
Speed2.549 km/s
Apparent Right ascension02h 06m 49s
Apparent Declination42° 39' 06"
Sunlit
Object is in daylight
Visualization observer readout
Local Sidereal Time08:12:02
Azimuth305.804° NW
Elevation24.957°
Doppler factor1
Orbital elements
Apogee altitude34,199.451 km
Perigee altitude459.983 km
Semi-major axis23,707.854 km
Eccentricity0.7115673
Inclination48.5989°
RAAN296.1481°
Arg. of periapsis304.2907°
True anomaly55.61589°
Mean anomaly7.5695°
Eccentric anomaly24.43319°
Mean motion0.59457 °/min
BSTAR0.0020341
Orbital period605.48 mins
Loading maneuver chart data...
Loading historical data...
Loading historical data...
Loading historical data...
Loading historical data...
Loading historical data...
Loading historical data...
Loading historical data...
Other satellites on launch #46 in the year 2017 (2017-08-16 UTC)

BREEZE-M DEB (TANK) Visibility forecast

Observer location: undefined°, undefined

Span
Click to sort rows by Start time (UTC) header in descending order
Start Az.
Max El. time (UTC)
Max El. Az.
Max El.
End time (UTC)
End Az.
197 mins2024-12-05 10:13:41.046Z305.786° NW2024-12-05 10:32:41.046Z304.606° NW23.115°2024-12-05 13:30:41.046Z297.965° NW
356 mins2024-12-06 04:17:41.046Z283.807° WNW2024-12-06 07:02:41.046Z294.841° NW43.065°2024-12-06 10:13:41.046Z265.396° W
|